This demonstration page uses our WeatherBlox Daily Observations layout. Learn more.

Hourly Observations for July 15, 2017

Temp ( °F °C ) Dew Point ( °F °C ) Humidity (%) Winds ( mph kmh ) Pressure ( in mb ) Visibility ( mi km ) Precip ( " mm )
12:54 am 00:54 Clear 72 22.2 68 20 87 87 S 6 9 30.13 1020 10 16.0934 0 0
1:54 am 01:54 Clear 71 21.7 68 20 90 90 S 8 13 30.12 1020 10 16.0934 0 0
2:54 am 02:54 Clear 72 22.2 69 20.6 91 91 SSE 5 7 30.11 1020 10 16.0934 0 0
3:54 am 03:54 Clear 71 21.7 68 20 90 90 S 6 9 30.11 1020 10 16.0934 0 0
4:54 am 04:54 Clear 72 22.2 68 20 87 87 S 3 6 30.12 1020 10 16.0934 0 0
5:54 am 05:54 Clear 72 22.2 68 20 87 87 Calm 30.12 1020 10 16.0934 0 0
6:54 am 06:54 Sunny 71 21.7 68 20 90 90 S 3 6 30.13 1020 9 14.48406 0 0
7:54 am 07:54 Sunny 74 23.3 70 21.1 88 88 S 3 6 30.13 1020 10 16.0934 0 0
8:54 am 08:54 Sunny 79 26.1 72 22.2 79 79 SSW 5 7 30.13 1020 10 16.0934 0 0
9:54 am 09:54 Sunny 83 28.3 74 23.3 74 74 SW 9 15 30.12 1020 10 16.0934 0 0
10:54 am 10:54 Sunny 86 30 74 23.3 67 67 SW 10 17 30.12 1020 10 16.0934 0 0
11:54 am 11:54 Sunny 87 30.6 73 22.8 63 63 SSW 5 7 30.11 1020 10 16.0934 0 0
12:54 pm 12:54 Mostly Sunny 88 31.1 71 21.7 57 57 SSW 7 11 30.11 1020 10 16.0934 0 0
1:54 pm 13:54 Mostly Sunny 90 32.2 70 21.1 52 52 SSW 9 15 30.09 1019 10 16.0934 0 0
2:54 pm 14:54 Mostly Sunny 90 32.2 68 20 48 48 SW 5 7 30.08 1019 10 16.0934 0 0
3:54 pm 15:54 Partly Cloudy 90 32.2 70 21.1 52 52 S 6 9 30.06 1018 10 16.0934 0 0
4:54 pm 16:54 Sunny 90 32.2 67 19.4 47 47 SW 6 9 30.04 1017 10 16.0934 0 0
5:54 pm 17:54 Sunny 90 32.2 68 20 48 48 SSW 6 9 30.02 1017 10 16.0934 0 0
6:54 pm 18:54 Sunny 89 31.7 68 20 50 50 SSW 7 11 30.02 1017 10 16.0934 0 0
7:54 pm 19:54 Sunny 87 30.6 69 20.6 55 55 SSW 8 13 30.01 1016 10 16.0934 0 0
8:54 pm 20:54 Sunny 83 28.3 69 20.6 63 63 S 5 7 30 1016 10 16.0934 0 0
9:54 pm 21:54 Clear 83 28.3 67 19.4 59 59 Calm 30 1016 10 16.0934 0 0
10:54 pm 22:54 Clear 77 25 67 19.4 71 71 Calm 30.01 1016 10 16.0934 0 0
11:54 pm 23:54 Clear 77 25 67 19.4 71 71 Calm 30.03 1017 10 16.0934 0 0

Powered by AerisWeather